FW1657 Weather Reports


time (UTC)temp
C
wind
direction
speed
KPH
gust
KPH
rain 1hr
cm
rain 24hr
cm
rain mn
cm
humidity
%
barometer
mb
20260502231547 15 7 11.3 19.3 0.00 0.00 0.00 56 1014.5
20260502230044 15 18 12.9 20.9 0.00 0.00 0.00 56 1014.5
20260502224541 15 19 11.3 17.7 0.00 0.00 0.00 56 1014.6
20260502223039 15 14 12.9 19.3 0.00 0.00 0.00 55 1014.7
20260502221535 16 13 12.9 19.3 0.00 0.00 0.00 55 1014.7
20260502220032 16 6 14.5 24.1 0.00 0.00 0.00 53 1014.7
20260502214531 16 10 14.5 20.9 0.00 0.00 0.00 52 1014.7
20260502213034 17 9 14.5 22.5 0.00 0.00 0.00 51 1014.8
20260502211530 17 11 14.5 20.9 0.00 0.00 0.00 51 1014.9
20260502210029 17 11 19.3 27.4 0.00 0.00 0.00 50 1014.9
20260502204528 17 5 14.5 20.9 0.00 0.00 0.00 51 1015.0
20260502203027 17 11 11.3 19.3 0.00 0.00 0.00 50 1015.0
20260502201527 17 15 14.5 24.1 0.00 0.00 0.00 48 1015.0
20260502200035 17 11 14.5 20.9 0.00 0.00 0.00 48 1015.0
20260502194528 17 5 14.5 27.4 0.00 0.00 0.00 48 1015.0
20260502193025 18 21 11.3 20.9 0.00 0.00 0.00 49 1015.0
20260502191525 18 10 12.9 20.9 0.00 0.00 0.00 50 1014.8
20260502190024 18 12 11.3 17.7 0.00 0.00 0.00 53 1014.7
20260502184531 18 13 9.7 16.1 0.00 0.00 0.00 53 1014.9
20260502183022 18 11 9.7 14.5 0.00 0.00 0.00 53 1014.7
20260502181521 19 16 4.8 9.7 0.00 0.00 0.00 52 1014.9
20260502163021 22 24 20.9 30.6 0.00 0.00 0.00 43 1015.2
20260502161512 22 19 11.3 20.9 0.00 0.00 0.00 43 1015.4
20260502151508 23 13 20.9 29.0 0.00 0.00 0.00 44 1015.7
20260502123055 22 21 9.7 19.3 0.00 0.00 0.00 57 1018.1
20260502121543 22 22 14.5 25.7 0.00 0.00 0.00 59 1018.4
20260502114539 22 35 9.7 25.7 0.00 0.00 0.00 58 1018.9
20260502113040 22 33 14.5 22.5 0.00 0.00 0.00 57 1019.0
20260502111545 22 36 8.0 17.7 0.00 0.00 0.00 57 1019.2
20260502110033 22 46 9.7 19.3 0.00 0.00 0.00 55 1019.2
20260502104529 22 8 8.0 27.4 0.00 0.00 0.00 56 1019.4
20260502103026 21 330 9.7 20.9 0.00 0.00 0.00 57 1019.4
20260502101523 21 5 9.7 25.7 0.00 0.00 0.00 56 1019.6
20260502091511 20 10 9.7 19.3 0.00 0.00 0.00 53 1020.1
20260502080105 16 315 9.7 19.3 0.00 0.00 0.00 70 1020.2
20260502070043 13 323 6.4 11.3 0.00 0.00 0.00 77 1020.5
20260502064542 14 127 3.2 4.8 0.00 0.00 0.00 77 1020.9
20260502063055 14 89 4.8 12.9 0.00 0.00 0.00 70 1021.3
20260502061544 13 327 9.7 14.5 0.00 0.00 0.00 66 1020.7
20260502060035 13 291 8.0 14.5 0.00 0.00 0.00 72 1020.6
20260502054530 12 267 3.2 9.7 0.00 0.00 0.00 71 1020.8
20260502053029 11 33 0.0 4.8 0.00 0.00 0.00 72 1020.9
20260502051533 11 38 3.2 8.0 0.00 0.00 0.00 74 1021.1
20260502050028 11 83 3.2 8.0 0.00 0.00 0.00 73 1021.3
20260502044527 10 92 11.3 16.1 0.00 0.00 0.00 75 1021.5
20260502043025 10 321 0.0 4.8 0.00 0.00 0.00 72 1021.0
20260502041523 10 321 3.2 4.8 0.00 0.00 0.00 70 1020.8
20260502040024 10 321 3.2 6.4 0.00 0.00 0.00 69 1020.8
20260502034522 10 321 3.2 6.4 0.00 0.00 0.00 68 1020.8
20260502033020 9 318 3.2 6.4 0.00 0.00 0.00 68 1020.9
20260502031518 10 346 3.2 8.0 0.00 0.00 0.00 67 1021.0
20260502030022 10 25 1.6 6.4 0.00 0.00 0.00 66 1021.1
20260502024515 10 73 0.0 3.2 0.00 0.00 0.00 65 1021.3
20260502023115 10 74 1.6 19.3 0.00 0.00 0.00 65 1021.5
20260502021510 10 125 11.3 25.7 0.00 0.00 0.00 65 1021.5
20260502020010 10 342 0.0 0.0 0.00 0.00 0.00 64 1021.2
20260502014509 10 342 3.2 4.8 0.00 0.00 0.00 61 1021.2
20260502013008 10 343 3.2 9.7 0.00 0.00 0.00 62 1021.3
20260502011507 10 342 4.8 9.7 0.00 0.00 0.00 63 1021.4
20260502010006 10 324 3.2 4.8 0.00 0.00 0.00 64 1021.5
20260502004506 10 324 1.6 6.4 0.00 0.00 0.00 63 1021.5
20260502003002 10 350 3.2 8.0 0.00 0.00 0.00 63 1021.6
20260502001559 11 350 4.8 8.0 0.00 0.00 0.00 61 1021.7
20260501234554 11 98 3.2 11.3 0.00 0.00 0.00 59 1022.1
20260501233051 12 90 9.7 19.3 0.00 0.00 0.00 56 1022.1